Flag for Japan Weather past 2 weeks in Fukuoka, Japan

Now
61 °F

Light rain. Partly cloudy.


Feels Like: 61 °F
Forecast: 64 / 73 °F
Wind: 12 mph from Southeast

Location: Fukuoka Airport

Current Time: Apr 19, 2015 at 2:03:08 AM

Latest Report: Apr 19, 2015 at 1:30 AM


Visibility: N/A

Pressure: 29.95 "Hg

Humidity: 83%

Dew point: 55 °F

Location of FukuokaLocation

Historic Weather in Fukuoka — Graph

°F

Fukuoka temperature yesterday

Maximum temperature yesterday: 77 °F (at 1:30 PM)
Minimum temperature yesterday: 46 °F (at 6:00 AM)
Average temperature yesterday: 61 °F

Past Weeks' High & Low Weather Summary

 TemperatureHumidityPressure
High77 °F (Apr 18, 1:30 PM)100% (Apr 5, 3:00 AM)30.27 "Hg (Apr 5, 3:00 AM)
Low45 °F (Apr 9, 1:30 AM)11% (Apr 18, 1:30 PM)29.65 "Hg (Apr 14, 9:30 PM)
Average57 °F71%30.00 "Hg
* Reported Apr 4 1:00 AM — Apr 19 1:00 AM, Fukuoka, Weather by CustomWeather, © 2015

Note: Actual official high and low records may vary slightly from our data, if they occured in-between our weather recording intervals... More about our weather records

Advertising

Fukuoka weather history for previous 24 hours

 ConditionsComfort  
Time TempWeatherWind HumidityBarometerVisibility
1:00 AM
Sun, Apr 19
61 °FLight rain. Partly cloudy.14 mph83%29.95 "HgN/A
12:30 AM61 °FPartly cloudy.17 mph83%29.95 "HgN/A
12:00 AM61 °FPartly cloudy.14 mph88%29.95 "HgN/A
11:30 PM
Sat, Apr 18
61 °FSprinkles. Partly cloudy.18 mph88%29.98 "Hg6 mi
11:00 PM61 °FRain showers. Partly cloudy.9 mph88%29.98 "Hg4 mi
10:30 PM61 °FRain showers. Partly cloudy.8 mph88%29.98 "Hg5 mi
10:00 PM61 °FSprinkles. Passing clouds.8 mph83%30.01 "HgN/A
9:30 PM61 °FSprinkles. Passing clouds.8 mph83%30.01 "HgN/A
9:00 PM64 °FLight rain. Partly cloudy.8 mph56%30.01 "HgN/A
8:30 PM66 °FLight rain. Partly cloudy.9 mph49%30.01 "HgN/A
8:00 PM66 °FLight rain. Partly cloudy.5 mph43%29.98 "HgN/A
7:30 PM66 °FLight rain. Partly cloudy.6 mph43%29.98 "HgN/A
7:00 PM66 °FLight rain. Partly cloudy.3 mph43%29.95 "HgN/A
6:30 PM66 °FBroken clouds.3 mph32%29.95 "HgN/A
6:00 PM66 °FBroken clouds.3 mph30%29.95 "HgN/A
5:30 PM66 °FLight rain. Broken clouds.1 mph32%29.95 "HgN/A
5:00 PM66 °FLight rain. Partly sunny.3 mph35%29.98 "HgN/A
4:30 PM66 °FLight rain. Clear.9 mph35%29.98 "HgN/A
4:00 PM68 °FSunny.9 mph30%29.98 "Hg10 mi
3:30 PM70 °FSunny.9 mph27%29.98 "Hg10 mi
3:00 PM72 °FSunny.2 mph27%29.95 "Hg10 mi
2:30 PM70 °FSunny.8 mph29%29.98 "Hg10 mi
2:00 PM75 °FPassing clouds.6 mph14%29.98 "HgN/A
1:30 PM77 °FSunny.5 mph11%29.98 "Hg10 mi
1:00 PM75 °FSunny.12 mph15%30.01 "Hg10 mi
12:30 PM75 °FSunny.13 mph18%30.01 "Hg10 mi
12:00 PM73 °FSunny.15 mph20%30.04 "Hg10 mi
11:30 AM72 °FSunny.15 mph19%30.04 "Hg10 mi
11:00 AM70 °FSunny.16 mph27%30.04 "Hg10 mi
10:30 AM70 °FSunny.13 mph25%30.04 "Hg10 mi
10:00 AM66 °FSunny.12 mph28%30.07 "Hg10 mi
9:30 AM64 °FSunny.10 mph34%30.07 "Hg10 mi
9:00 AM61 °FPassing clouds.3 mph39%30.09 "HgN/A
8:30 AM57 °FSunny.5 mph44%30.07 "Hg10 mi
8:00 AM55 °FPassing clouds.3 mph51%30.09 "HgN/A
7:30 AM54 °FSunny.3 mph58%30.09 "Hg10 mi
7:00 AM50 °FSunny.2 mph71%30.09 "Hg10 mi
6:30 AM50 °FSunny.3 mph67%30.07 "Hg10 mi
6:00 AM46 °FSunny.3 mph76%30.07 "Hg10 mi
5:30 AM50 °FClear.No wind67%30.07 "Hg10 mi
5:00 AM50 °FClear.1 mph67%30.07 "Hg10 mi
4:30 AM50 °FClear.2 mph67%30.04 "Hg10 mi
4:00 AM50 °FClear.2 mph67%30.04 "Hg10 mi
3:30 AM50 °FClear.No wind67%30.04 "Hg10 mi
3:00 AM50 °FPassing clouds.3 mph62%30.04 "HgN/A
2:30 AM50 °FClear.1 mph62%30.04 "Hg10 mi
2:00 AM50 °FClear.2 mph62%30.04 "Hg10 mi
Weather by CustomWeather, © 2015

See weather overviewHow to use our weather pages